Time,TemperatureF,DewpointF,PressureIn,WindDirection,WindDirectionDegrees,WindSpeedMPH,WindSpeedGustMPH,Humidity,HourlyPrecipIn,Conditions,Clouds,dailyrainin,SoftwareType,DateUTC
2013-02-11 00:00:00,49.5,35.3,29.73,NW,323,6.0,6.0,58,0.00,,CLR,0.00,VWS V14.00,2013-02-11 06:00:00,
2013-02-11 00:05:00,48.9,35.2,29.73,West,278,4.0,13.0,59,0.00,,CLR,0.00,VWS V14.00,2013-02-11 06:05:00,
2013-02-11 00:10:00,48.4,35.2,29.74,NW,323,3.0,18.0,60,0.00,,CLR,0.00,VWS V14.00,2013-02-11 06:10:00,
2013-02-11 00:15:00,47.9,34.7,29.74,WNW,284,17.0,18.0,60,0.00,,CLR,0.00,VWS V14.00,2013-02-11 06:15:00,
2013-02-11 00:20:00,47.6,34.4,29.74,West,269,6.0,18.0,60,0.00,,CLR,0.00,VWS V14.00,2013-02-11 06:20:00,
2013-02-11 00:25:00,47.2,34.0,29.75,WNW,302,4.0,18.0,60,0.00,,CLR,0.00,VWS V14.00,2013-02-11 06:25:00,
2013-02-11 00:30:00,46.8,33.2,29.75,WSW,247,8.0,8.0,59,0.00,,CLR,0.00,VWS V14.00,2013-02-11 06:30:00,
2013-02-11 00:35:00,46.3,32.8,29.75,West,270,11.0,17.0,59,0.00,,CLR,0.00,VWS V14.00,2013-02-11 06:35:00,
2013-02-11 00:40:00,45.8,32.3,29.75,WNW,301,5.0,20.0,59,0.00,,CLR,0.00,VWS V14.00,2013-02-11 06:40:00,
2013-02-11 00:45:00,45.4,31.9,29.76,WNW,294,5.0,20.0,59,0.00,,CLR,0.00,VWS V14.00,2013-02-11 06:45:00,
2013-02-11 00:50:00,45.1,31.6,29.76,NW,319,6.0,20.0,59,0.00,,CLR,0.00,VWS V14.00,2013-02-11 06:50:00,
2013-02-11 00:55:00,44.9,31.5,29.77,WNW,293,9.0,20.0,59,0.00,,CLR,0.00,VWS V14.00,2013-02-11 06:55:00,
2013-02-11 01:00:00,44.7,30.9,29.77,WNW,299,11.0,11.0,58,0.00,,CLR,0.00,VWS V14.00,2013-02-11 07:00:00,
2013-02-11 01:05:00,44.5,31.1,29.77,WNW,294,11.0,21.0,59,0.00,,FEW030,0.00,VWS V14.00,2013-02-11 07:05:00,
2013-02-11 01:10:00,44.4,31.0,29.77,WNW,298,6.0,21.0,59,0.00,,FEW030,0.00,VWS V14.00,2013-02-11 07:10:00,
2013-02-11 01:15:00,44.1,31.1,29.78,NW,306,9.0,21.0,60,0.00,,FEW030,0.00,VWS V14.00,2013-02-11 07:15:00,
2013-02-11 01:20:00,43.9,30.9,29.78,WNW,303,11.0,21.0,60,0.00,,FEW030,0.00,VWS V14.00,2013-02-11 07:20:00,
2013-02-11 01:25:00,43.8,30.8,29.78,WSW,253,3.0,21.0,60,0.00,,FEW030,0.00,VWS V14.00,2013-02-11 07:25:00,
2013-02-11 01:30:00,43.6,30.6,29.78,West,262,4.0,4.0,60,0.00,,FEW030,0.00,VWS V14.00,2013-02-11 07:30:00,
2013-02-11 01:35:00,43.5,31.0,29.79,WNW,294,1.0,14.0,61,0.00,,FEW040,0.00,VWS V14.00,2013-02-11 07:35:00,
2013-02-11 01:40:00,43.1,30.6,29.80,WNW,282,5.0,14.0,61,0.00,,FEW040,0.00,VWS V14.00,2013-02-11 07:40:00,
2013-02-11 01:45:00,42.8,30.3,29.80,NNW,328,7.0,15.0,61,0.00,,FEW040,0.00,VWS V14.00,2013-02-11 07:45:00,
2013-02-11 01:50:00,42.6,30.1,29.80,WNW,287,11.0,15.0,61,0.00,,FEW040,0.00,VWS V14.00,2013-02-11 07:50:00,
2013-02-11 01:55:00,42.4,29.9,29.81,NW,313,15.0,15.0,61,0.00,,FEW040,0.00,VWS V14.00,2013-02-11 07:55:00,
2013-02-11 02:00:00,42.1,29.6,29.81,WNW,283,15.0,18.0,61,0.00,,FEW040,0.00,VWS V14.00,2013-02-11 08:00:00,
2013-02-11 02:05:00,42.0,29.5,29.81,WNW,284,4.0,18.0,61,0.00,,FEW040,0.00,VWS V14.00,2013-02-11 08:05:00,
2013-02-11 02:10:00,41.8,29.8,29.81,WNW,295,4.0,18.0,62,0.00,,FEW040,0.00,VWS V14.00,2013-02-11 08:10:00,
2013-02-11 02:15:00,41.6,29.6,29.81,NW,308,4.0,18.0,62,0.00,,FEW040,0.00,VWS V14.00,2013-02-11 08:15:00,
2013-02-11 02:20:00,41.5,29.5,29.81,West,277,9.0,18.0,62,0.00,,FEW040,0.00,VWS V14.00,2013-02-11 08:20:00,
2013-02-11 02:25:00,41.5,29.1,29.81,WNW,303,3.0,18.0,61,0.00,,FEW040,0.00,VWS V14.00,2013-02-11 08:25:00,
2013-02-11 02:30:00,41.5,29.1,29.82,NW,310,3.0,11.0,61,0.00,,FEW040,0.00,VWS V14.00,2013-02-11 08:30:00,
2013-02-11 02:35:00,41.4,29.4,29.82,NW,307,4.0,11.0,62,0.00,,FEW040,0.00,VWS V14.00,2013-02-11 08:35:00,
2013-02-11 02:40:00,41.3,29.3,29.83,West,278,7.0,13.0,62,0.00,,FEW040,0.00,VWS V14.00,2013-02-11 08:40:00,
2013-02-11 02:45:00,41.2,29.2,29.83,WNW,286,10.0,13.0,62,0.00,,FEW040,0.00,VWS V14.00,2013-02-11 08:45:00,
2013-02-11 02:50:00,41.1,29.1,29.83,West,260,12.0,13.0,62,0.00,,FEW040,0.00,VWS V14.00,2013-02-11 08:50:00,
2013-02-11 02:55:00,41.0,29.0,29.83,WNW,299,9.0,15.0,62,0.00,,FEW040,0.00,VWS V14.00,2013-02-11 08:55:00,
2013-02-11 03:00:00,40.8,28.8,29.83,NW,309,7.0,7.0,62,0.00,,FEW040,0.00,VWS V14.00,2013-02-11 09:00:00,
2013-02-11 03:05:00,40.7,28.7,29.83,West,266,7.0,15.0,62,0.00,,FEW043,0.00,VWS V14.00,2013-02-11 09:05:00,
2013-02-11 03:10:00,40.6,28.6,29.84,West,277,5.0,15.0,62,0.00,,FEW043,0.00,VWS V14.00,2013-02-11 09:10:00,
2013-02-11 03:15:00,40.4,28.4,29.84,NW,305,0.0,15.0,62,0.00,,FEW043,0.00,VWS V14.00,2013-02-11 09:15:00,
2013-02-11 03:20:00,40.3,27.9,29.84,WNW,293,4.0,16.0,61,0.00,,FEW043,0.00,VWS V14.00,2013-02-11 09:20:00,
2013-02-11 03:25:00,40.1,27.8,29.84,WNW,283,7.0,17.0,61,0.00,,FEW043,0.00,VWS V14.00,2013-02-11 09:25:00,
2013-02-11 03:30:00,40.0,27.2,29.84,WNW,285,9.0,12.0,60,0.00,,FEW043,0.00,VWS V14.00,2013-02-11 09:30:00,
2013-02-11 03:35:00,39.9,27.2,29.84,NW,306,6.0,12.0,60,0.00,,FEW043,0.00,VWS V14.00,2013-02-11 09:35:00,
2013-02-11 03:40:00,39.8,27.1,29.84,WNW,294,5.0,17.0,60,0.00,,FEW043,0.00,VWS V14.00,2013-02-11 09:40:00,
2013-02-11 03:45:00,39.7,27.0,29.84,WNW,302,4.0,17.0,60,0.00,,FEW043,0.00,VWS V14.00,2013-02-11 09:45:00,
2013-02-11 03:50:00,39.6,26.9,29.84,NW,310,9.0,17.0,60,0.00,,FEW043,0.00,VWS V14.00,2013-02-11 09:50:00,
2013-02-11 03:55:00,39.5,26.8,29.84,NW,311,6.0,17.0,60,0.00,,FEW043,0.00,VWS V14.00,2013-02-11 09:55:00,
2013-02-11 04:00:00,39.4,27.1,29.84,WNW,291,5.0,5.0,61,0.00,,FEW043,0.00,VWS V14.00,2013-02-11 10:00:00,
2013-02-11 04:05:00,39.2,26.9,29.84,WNW,287,1.0,9.0,61,0.00,,FEW043,0.00,VWS V14.00,2013-02-11 10:05:00,
2013-02-11 04:10:00,39.1,27.2,29.84,West,275,5.0,10.0,62,0.00,,FEW043,0.00,VWS V14.00,2013-02-11 10:10:00,
2013-02-11 04:15:00,39.0,27.1,29.85,West,264,8.0,12.0,62,0.00,,FEW043,0.00,VWS V14.00,2013-02-11 10:15:00,
2013-02-11 04:20:00,39.0,27.1,29.84,West,279,7.0,13.0,62,0.00,,FEW043,0.00,VWS V14.00,2013-02-11 10:20:00,
2013-02-11 04:25:00,38.9,27.0,29.85,West,280,1.0,13.0,62,0.00,,FEW043,0.00,VWS V14.00,2013-02-11 10:25:00,
2013-02-11 04:30:00,38.9,27.0,29.85,WNW,286,5.0,7.0,62,0.00,,FEW043,0.00,VWS V14.00,2013-02-11 10:30:00,
2013-02-11 04:35:00,38.8,26.9,29.85,West,280,4.0,9.0,62,0.00,,FEW043,0.00,VWS V14.00,2013-02-11 10:35:00,
2013-02-11 04:40:00,38.8,26.9,29.85,WNW,297,1.0,12.0,62,0.00,,FEW043,0.00,VWS V14.00,2013-02-11 10:40:00,
2013-02-11 04:45:00,38.8,27.3,29.85,WNW,286,5.0,12.0,63,0.00,,FEW043,0.00,VWS V14.00,2013-02-11 10:45:00,
2013-02-11 04:50:00,38.7,27.2,29.86,NW,313,1.0,12.0,63,0.00,,FEW043,0.00,VWS V14.00,2013-02-11 10:50:00,
2013-02-11 04:55:00,38.6,27.1,29.85,WNW,292,5.0,12.0,63,0.00,,FEW043,0.00,VWS V14.00,2013-02-11 10:55:00,
2013-02-11 05:00:00,38.6,27.1,29.85,North,356,0.0,4.0,63,0.00,,FEW043,0.00,VWS V14.00,2013-02-11 11:00:00,
2013-02-11 05:05:00,38.6,27.1,29.85,NW,306,4.0,7.0,63,0.00,,FEW043,0.00,VWS V14.00,2013-02-11 11:05:00,
2013-02-11 05:10:00,38.5,27.0,29.85,WNW,283,4.0,9.0,63,0.00,,FEW043,0.00,VWS V14.00,2013-02-11 11:10:00,
2013-02-11 05:15:00,38.6,27.1,29.86,West,265,6.0,17.0,63,0.00,,FEW043,0.00,VWS V14.00,2013-02-11 11:15:00,
2013-02-11 05:20:00,38.7,27.2,29.86,WNW,284,8.0,17.0,63,0.00,,FEW043,0.00,VWS V14.00,2013-02-11 11:20:00,
2013-02-11 05:25:00,38.7,27.2,29.86,NW,313,3.0,17.0,63,0.00,,FEW043,0.00,VWS V14.00,2013-02-11 11:25:00,
2013-02-11 05:30:00,38.7,27.6,29.86,NW,306,3.0,4.0,64,0.00,,FEW043,0.00,VWS V14.00,2013-02-11 11:30:00,
2013-02-11 05:35:00,38.6,27.5,29.87,WNW,301,6.0,10.0,64,0.00,,FEW043,0.00,VWS V14.00,2013-02-11 11:35:00,
2013-02-11 05:40:00,38.6,27.5,29.86,WNW,294,7.0,10.0,64,0.00,,FEW043,0.00,VWS V14.00,2013-02-11 11:40:00,
2013-02-11 05:45:00,38.6,27.5,29.87,West,275,2.0,10.0,64,0.00,,FEW043,0.00,VWS V14.00,2013-02-11 11:45:00,
2013-02-11 05:50:00,38.6,27.5,29.87,WNW,299,0.0,10.0,64,0.00,,FEW043,0.00,VWS V14.00,2013-02-11 11:50:00,
2013-02-11 05:55:00,38.7,28.0,29.88,WNW,295,3.0,10.0,65,0.00,,FEW043,0.00,VWS V14.00,2013-02-11 11:55:00,
2013-02-11 06:00:00,38.8,28.1,29.87,West,277,3.0,3.0,65,0.00,,FEW043,0.00,VWS V14.00,2013-02-11 12:00:00,
2013-02-11 06:05:00,38.8,28.1,29.88,WNW,290,4.0,14.0,65,0.00,,FEW043,0.00,VWS V14.00,2013-02-11 12:05:00,
2013-02-11 06:10:00,38.8,28.1,29.88,WNW,288,6.0,14.0,65,0.00,,FEW043,0.00,VWS V14.00,2013-02-11 12:10:00,
2013-02-11 06:15:00,38.9,28.1,29.88,WNW,286,7.0,15.0,65,0.00,,FEW043,0.00,VWS V14.00,2013-02-11 12:15:00,
2013-02-11 06:20:00,38.8,28.1,29.88,WNW,289,4.0,15.0,65,0.00,,FEW043,0.00,VWS V14.00,2013-02-11 12:20:00,
2013-02-11 06:25:00,38.7,28.0,29.88,West,279,6.0,15.0,65,0.00,,FEW043,0.00,VWS V14.00,2013-02-11 12:25:00,
2013-02-11 06:30:00,38.7,28.0,29.88,West,271,1.0,6.0,65,0.00,,FEW043,0.00,VWS V14.00,2013-02-11 12:30:00,
2013-02-11 06:35:00,38.7,28.0,29.89,NW,304,3.0,9.0,65,0.00,,FEW040,0.00,VWS V14.00,2013-02-11 12:35:00,
2013-02-11 06:40:00,38.6,27.9,29.89,WNW,284,13.0,13.0,65,0.00,,FEW040,0.00,VWS V14.00,2013-02-11 12:40:00,
2013-02-11 06:45:00,38.6,27.9,29.89,WNW,287,2.0,14.0,65,0.00,,FEW040,0.00,VWS V14.00,2013-02-11 12:45:00,
2013-02-11 06:50:00,38.4,27.7,29.90,NW,321,2.0,14.0,65,0.00,,FEW040,0.00,VWS V14.00,2013-02-11 12:50:00,
2013-02-11 06:55:00,38.5,27.8,29.90,WSW,256,3.0,14.0,65,0.00,,FEW040,0.00,VWS V14.00,2013-02-11 12:55:00,
2013-02-11 07:00:00,38.4,27.7,29.91,WSW,248,4.0,6.0,65,0.00,,FEW040,0.00,VWS V14.00,2013-02-11 13:00:00,
2013-02-11 07:05:00,38.3,28.0,29.92,West,259,7.0,13.0,66,0.00,,FEW040,0.00,VWS V14.00,2013-02-11 13:05:00,
2013-02-11 07:10:00,38.3,28.0,29.92,West,262,3.0,13.0,66,0.00,,FEW040,0.00,VWS V14.00,2013-02-11 13:10:00,
2013-02-11 07:15:00,38.2,27.9,29.92,West,274,3.0,13.0,66,0.00,,FEW040,0.00,VWS V14.00,2013-02-11 13:15:00,
2013-02-11 07:20:00,38.2,27.9,29.93,NW,308,2.0,13.0,66,0.00,,FEW040,0.00,VWS V14.00,2013-02-11 13:20:00,
2013-02-11 07:25:00,38.2,27.9,29.93,West,277,5.0,15.0,66,0.00,,FEW040,0.00,VWS V14.00,2013-02-11 13:25:00,
2013-02-11 07:30:00,38.2,27.9,29.94,WNW,285,10.0,14.0,66,0.00,,FEW040,0.00,VWS V14.00,2013-02-11 13:30:00,
2013-02-11 07:35:00,38.3,28.0,29.94,NW,309,4.0,14.0,66,0.00,,FEW040,0.00,VWS V14.00,2013-02-11 13:35:00,
2013-02-11 07:40:00,38.3,28.0,29.94,WNW,289,13.0,14.0,66,0.00,,FEW040,0.00,VWS V14.00,2013-02-11 13:40:00,
2013-02-11 07:45:00,38.4,28.4,29.94,WNW,287,0.0,14.0,67,0.00,,FEW040,0.00,VWS V14.00,2013-02-11 13:45:00,
2013-02-11 07:50:00,38.5,28.1,29.94,WSW,258,1.0,14.0,66,0.00,,FEW040,0.00,VWS V14.00,2013-02-11 13:50:00,
2013-02-11 07:55:00,38.6,28.6,29.95,NW,305,6.0,14.0,67,0.00,,FEW040,0.00,VWS V14.00,2013-02-11 13:55:00,
2013-02-11 08:00:00,38.7,28.3,29.95,West,273,6.0,9.0,66,0.00,,FEW040,0.00,VWS V14.00,2013-02-11 14:00:00,
2013-02-11 08:05:00,38.8,28.8,29.95,West,275,5.0,9.0,67,0.00,,SCT200,0.00,VWS V14.00,2013-02-11 14:05:00,
2013-02-11 08:10:00,38.9,28.5,29.95,West,268,1.0,10.0,66,0.00,,SCT200,0.00,VWS V14.00,2013-02-11 14:10:00,
2013-02-11 08:15:00,39.0,29.0,29.95,WNW,290,2.0,10.0,67,0.00,,SCT200,0.00,VWS V14.00,2013-02-11 14:15:00,
2013-02-11 08:20:00,39.2,29.2,29.95,West,271,5.0,10.0,67,0.00,,SCT200,0.00,VWS V14.00,2013-02-11 14:20:00,
2013-02-11 08:25:00,39.2,29.2,29.96,WNW,296,5.0,13.0,67,0.00,,SCT200,0.00,VWS V14.00,2013-02-11 14:25:00,
2013-02-11 08:30:00,39.3,29.3,29.95,West,271,7.0,7.0,67,0.00,,SCT200,0.00,VWS V14.00,2013-02-11 14:30:00,
2013-02-11 08:35:00,39.4,29.4,29.95,WNW,291,11.0,15.0,67,0.00,,SCT200,0.00,VWS V14.00,2013-02-11 14:35:00,
2013-02-11 08:40:00,39.6,29.6,29.96,WSW,257,2.0,15.0,67,0.00,,SCT200,0.00,VWS V14.00,2013-02-11 14:40:00,
2013-02-11 08:45:00,39.8,29.8,29.95,West,275,1.0,15.0,67,0.00,,SCT200,0.00,VWS V14.00,2013-02-11 14:45:00,
2013-02-11 08:50:00,40.0,29.6,29.95,WNW,302,5.0,15.0,66,0.00,,SCT200,0.00,VWS V14.00,2013-02-11 14:50:00,
2013-02-11 08:55:00,40.0,29.2,29.95,WSW,253,5.0,18.0,65,0.00,,SCT200,0.00,VWS V14.00,2013-02-11 14:55:00,
2013-02-11 09:00:00,40.2,29.4,29.96,WNW,291,5.0,9.0,65,0.00,,SCT200,0.00,VWS V14.00,2013-02-11 15:00:00,
2013-02-11 09:05:00,40.2,29.0,29.96,WNW,303,7.0,15.0,64,0.00,,SCT200,0.00,VWS V14.00,2013-02-11 15:05:00,
2013-02-11 09:10:00,40.3,29.1,29.96,WNW,298,3.0,15.0,64,0.00,,SCT200,0.00,VWS V14.00,2013-02-11 15:10:00,
2013-02-11 09:15:00,40.6,29.0,29.97,West,267,9.0,18.0,63,0.00,,SCT200,0.00,VWS V14.00,2013-02-11 15:15:00,
2013-02-11 09:20:00,40.6,29.0,29.97,WNW,302,5.0,18.0,63,0.00,,SCT200,0.00,VWS V14.00,2013-02-11 15:20:00,
2013-02-11 09:25:00,40.8,29.2,29.97,NW,310,10.0,18.0,63,0.00,,SCT200,0.00,VWS V14.00,2013-02-11 15:25:00,
2013-02-11 09:30:00,40.9,29.3,29.97,NW,323,1.0,8.0,63,0.00,,SCT200,0.00,VWS V14.00,2013-02-11 15:30:00,
2013-02-11 09:35:00,41.0,29.0,29.98,WNW,296,8.0,10.0,62,0.00,,SCT200,0.00,VWS V14.00,2013-02-11 15:35:00,
2013-02-11 09:40:00,41.2,29.2,29.97,WNW,303,6.0,16.0,62,0.00,,SCT200,0.00,VWS V14.00,2013-02-11 15:40:00,
2013-02-11 09:45:00,41.3,29.3,29.97,NW,306,5.0,16.0,62,0.00,,SCT200,0.00,VWS V14.00,2013-02-11 15:45:00,
2013-02-11 09:50:00,41.8,29.8,29.98,WNW,299,9.0,16.0,62,0.00,,SCT200,0.00,VWS V14.00,2013-02-11 15:50:00,
2013-02-11 09:55:00,42.0,29.9,29.98,WNW,300,4.0,16.0,62,0.00,,SCT200,0.00,VWS V14.00,2013-02-11 15:55:00,
2013-02-11 10:00:00,42.1,29.6,29.98,NW,307,7.0,8.0,61,0.00,,SCT200,0.00,VWS V14.00,2013-02-11 16:00:00,
2013-02-11 10:05:00,42.3,30.2,29.98,West,266,2.0,10.0,62,0.00,,FEW040,0.00,VWS V14.00,2013-02-11 16:05:00,
2013-02-11 10:10:00,42.6,30.1,29.99,West,281,6.0,11.0,61,0.00,,FEW040,0.00,VWS V14.00,2013-02-11 16:10:00,
2013-02-11 10:15:00,42.7,29.8,29.99,NNW,348,6.0,13.0,60,0.00,,FEW040,0.00,VWS V14.00,2013-02-11 16:15:00,
2013-02-11 10:20:00,43.1,30.2,29.99,WNW,285,8.0,13.0,60,0.00,,FEW040,0.00,VWS V14.00,2013-02-11 16:20:00,
2013-02-11 10:25:00,43.4,30.5,29.99,NNW,331,3.0,13.0,60,0.00,,FEW040,0.00,VWS V14.00,2013-02-11 16:25:00,
2013-02-11 10:30:00,43.5,30.1,29.99,NNW,328,5.0,11.0,59,0.00,,FEW040,0.00,VWS V14.00,2013-02-11 16:30:00,
2013-02-11 10:35:00,43.6,30.2,29.99,NNW,329,7.0,11.0,59,0.00,,SCT200,0.00,VWS V14.00,2013-02-11 16:35:00,
2013-02-11 10:40:00,43.9,30.1,29.99,West,276,9.0,13.0,58,0.00,,SCT200,0.00,VWS V14.00,2013-02-11 16:40:00,
2013-02-11 10:45:00,44.0,29.8,29.99,NW,314,2.0,13.0,57,0.00,,SCT200,0.00,VWS V14.00,2013-02-11 16:45:00,
2013-02-11 10:50:00,44.0,29.3,29.99,NNW,348,6.0,13.0,56,0.00,,SCT200,0.00,VWS V14.00,2013-02-11 16:50:00,
2013-02-11 10:55:00,44.1,29.4,29.99,NW,306,8.0,14.0,56,0.00,,SCT200,0.00,VWS V14.00,2013-02-11 16:55:00,
2013-02-11 11:00:00,44.5,30.2,29.99,West,275,0.0,4.0,57,0.00,,SCT200,0.00,VWS V14.00,2013-02-11 17:00:00,
2013-02-11 11:05:00,44.6,29.9,30.00,NW,317,4.0,11.0,56,0.00,,SCT200,0.00,VWS V14.00,2013-02-11 17:05:00,
2013-02-11 11:10:00,44.8,30.1,30.00,NW,326,6.0,11.0,56,0.00,,SCT200,0.00,VWS V14.00,2013-02-11 17:10:00,
2013-02-11 11:15:00,45.2,30.5,30.00,NW,320,4.0,17.0,56,0.00,,SCT200,0.00,VWS V14.00,2013-02-11 17:15:00,
2013-02-11 11:20:00,45.1,29.5,30.00,NNW,332,2.0,17.0,54,0.00,,SCT200,0.00,VWS V14.00,2013-02-11 17:20:00,
2013-02-11 11:25:00,44.8,29.2,30.00,NNW,343,7.0,17.0,54,0.00,,SCT200,0.00,VWS V14.00,2013-02-11 17:25:00,
2013-02-11 11:31:00,45.1,29.9,30.00,WSW,245,1.0,5.0,55,0.00,,SCT200,0.00,VWS V14.00,2013-02-11 17:31:00,
2013-02-11 11:36:00,45.7,30.5,30.00,WNW,302,4.0,9.0,55,0.00,,SCT200,0.00,VWS V14.00,2013-02-11 17:36:00,
2013-02-11 11:41:00,45.9,30.2,30.00,WNW,288,9.0,14.0,54,0.00,,SCT200,0.00,VWS V14.00,2013-02-11 17:41:00,
2013-02-11 11:46:00,45.9,30.7,30.00,WNW,285,5.0,14.0,55,0.00,,SCT200,0.00,VWS V14.00,2013-02-11 17:46:00,
2013-02-11 11:51:00,45.7,30.0,29.99,WNW,291,6.0,14.0,54,0.00,,SCT200,0.00,VWS V14.00,2013-02-11 17:51:00,
2013-02-11 11:56:00,45.8,30.6,29.99,West,274,5.0,14.0,55,0.00,,SCT200,0.00,VWS V14.00,2013-02-11 17:56:00,
2013-02-11 12:01:00,46.1,30.9,29.99,NW,313,5.0,7.0,55,0.00,,SCT200,0.00,VWS V14.00,2013-02-11 18:01:00,
2013-02-11 12:06:00,46.2,30.9,29.99,WSW,258,5.0,12.0,55,0.00,,SCT200,0.00,VWS V14.00,2013-02-11 18:06:00,
2013-02-11 12:11:00,46.4,30.7,29.99,WNW,303,10.0,12.0,54,0.00,,SCT200,0.00,VWS V14.00,2013-02-11 18:11:00,
2013-02-11 12:16:00,45.9,29.8,29.99,WNW,299,8.0,15.0,53,0.00,,SCT200,0.00,VWS V14.00,2013-02-11 18:16:00,
2013-02-11 12:21:00,46.0,30.3,29.99,West,269,3.0,15.0,54,0.00,,SCT200,0.00,VWS V14.00,2013-02-11 18:21:00,
2013-02-11 12:26:00,46.2,30.0,29.99,West,281,9.0,15.0,53,0.00,,SCT200,0.00,VWS V14.00,2013-02-11 18:26:00,
2013-02-11 12:30:00,46.3,30.6,29.99,West,266,6.0,6.0,54,0.00,,SCT200,0.00,VWS V14.00,2013-02-11 18:30:00,
2013-02-11 12:35:00,46.7,30.5,29.99,NW,311,4.0,9.0,53,0.00,,FEW045,0.00,VWS V14.00,2013-02-11 18:35:00,
2013-02-11 12:40:00,46.6,30.4,29.99,West,259,7.0,12.0,53,0.00,,FEW045,0.00,VWS V14.00,2013-02-11 18:40:00,
2013-02-11 12:45:00,46.7,30.5,29.99,WNW,284,5.0,12.0,53,0.00,,FEW045,0.00,VWS V14.00,2013-02-11 18:45:00,
2013-02-11 12:50:00,47.3,31.0,29.99,WNW,300,5.0,12.0,53,0.00,,FEW045,0.00,VWS V14.00,2013-02-11 18:50:00,
2013-02-11 12:55:00,47.2,30.0,29.99,West,264,8.0,12.0,51,0.00,,FEW045,0.00,VWS V14.00,2013-02-11 18:55:00,
2013-02-11 13:00:00,47.2,30.5,29.99,NW,305,4.0,6.0,52,0.00,,FEW045,0.00,VWS V14.00,2013-02-11 19:00:00,
2013-02-11 13:05:00,47.5,30.3,29.99,WNW,296,4.0,10.0,51,0.00,,FEW045,0.00,VWS V14.00,2013-02-11 19:05:00,
2013-02-11 13:10:00,47.3,29.6,29.99,West,259,4.0,12.0,50,0.00,,FEW045,0.00,VWS V14.00,2013-02-11 19:10:00,
2013-02-11 13:15:00,47.5,29.8,29.99,NW,311,3.0,12.0,50,0.00,,FEW045,0.00,VWS V14.00,2013-02-11 19:15:00,
2013-02-11 13:20:00,47.7,29.5,29.99,WNW,298,6.0,12.0,49,0.00,,FEW045,0.00,VWS V14.00,2013-02-11 19:20:00,
2013-02-11 13:25:00,47.5,29.3,29.99,SW,226,5.0,12.0,49,0.00,,FEW045,0.00,VWS V14.00,2013-02-11 19:25:00,
2013-02-11 13:30:00,47.5,29.3,30.00,NW,304,6.0,11.0,49,0.00,,FEW045,0.00,VWS V14.00,2013-02-11 19:30:00,
2013-02-11 13:35:00,47.6,29.4,29.99,WNW,292,8.0,12.0,49,0.00,,SCT200,0.00,VWS V14.00,2013-02-11 19:35:00,
2013-02-11 13:40:00,47.8,29.1,29.99,WNW,290,5.0,12.0,48,0.00,,SCT200,0.00,VWS V14.00,2013-02-11 19:40:00,
2013-02-11 13:45:00,47.9,29.2,29.99,NW,312,7.0,12.0,48,0.00,,SCT200,0.00,VWS V14.00,2013-02-11 19:45:00,
2013-02-11 13:50:00,48.1,29.4,29.99,NW,318,2.0,15.0,48,0.00,,SCT200,0.00,VWS V14.00,2013-02-11 19:50:00,
2013-02-11 13:55:00,48.1,29.4,29.99,WNW,296,2.0,15.0,48,0.00,,SCT200,0.00,VWS V14.00,2013-02-11 19:55:00,
2013-02-11 14:00:00,48.3,30.0,29.99,WNW,296,7.0,7.0,49,0.00,,SCT200,0.00,VWS V14.00,2013-02-11 20:00:00,
2013-02-11 14:05:00,48.4,29.6,29.99,NNW,334,5.0,11.0,48,0.00,,SCT200,0.00,VWS V14.00,2013-02-11 20:05:00,
2013-02-11 14:10:00,48.3,29.5,29.99,WNW,284,8.0,15.0,48,0.00,,SCT200,0.00,VWS V14.00,2013-02-11 20:10:00,
2013-02-11 14:15:00,48.5,29.7,29.99,West,280,3.0,15.0,48,0.00,,SCT200,0.00,VWS V14.00,2013-02-11 20:15:00,
2013-02-11 14:20:00,48.8,29.5,29.99,WNW,300,3.0,15.0,47,0.00,,SCT200,0.00,VWS V14.00,2013-02-11 20:20:00,
2013-02-11 14:25:00,48.8,29.5,29.99,West,266,7.0,17.0,47,0.00,,SCT200,0.00,VWS V14.00,2013-02-11 20:25:00,
2013-02-11 14:30:00,49.0,29.7,29.99,WNW,295,8.0,15.0,47,0.00,,SCT200,0.00,VWS V14.00,2013-02-11 20:30:00,
2013-02-11 14:35:00,49.1,29.8,29.99,SW,233,0.0,15.0,47,0.00,,FEW045,0.00,VWS V14.00,2013-02-11 20:35:00,
2013-02-11 14:40:00,49.4,29.5,29.99,West,266,3.0,15.0,46,0.00,,FEW045,0.00,VWS V14.00,2013-02-11 20:40:00,
2013-02-11 14:45:00,49.5,29.6,29.99,West,276,10.0,17.0,46,0.00,,FEW045,0.00,VWS V14.00,2013-02-11 20:45:00,
2013-02-11 14:50:00,49.4,29.5,30.00,WSW,242,4.0,17.0,46,0.00,,FEW045,0.00,VWS V14.00,2013-02-11 20:50:00,
2013-02-11 14:55:00,49.5,29.6,30.00,WSW,258,9.0,17.0,46,0.00,,FEW045,0.00,VWS V14.00,2013-02-11 20:55:00,
2013-02-11 15:00:00,49.9,30.0,30.00,West,272,5.0,10.0,46,0.00,,FEW045,0.00,VWS V14.00,2013-02-11 21:00:00,
2013-02-11 15:05:00,49.8,29.3,30.00,WNW,290,8.0,14.0,45,0.00,,FEW045,0.00,VWS V14.00,2013-02-11 21:05:00,
2013-02-11 15:10:00,49.7,29.2,30.00,WNW,291,2.0,15.0,45,0.00,,FEW045,0.00,VWS V14.00,2013-02-11 21:10:00,
2013-02-11 15:15:00,49.7,29.2,30.00,WNW,293,5.0,15.0,45,0.00,,FEW045,0.00,VWS V14.00,2013-02-11 21:15:00,
2013-02-11 15:20:00,50.0,29.5,30.00,WSW,245,3.0,15.0,45,0.00,,FEW045,0.00,VWS V14.00,2013-02-11 21:20:00,
2013-02-11 15:26:00,50.3,29.8,30.00,WNW,300,3.0,15.0,45,0.00,,FEW045,0.00,VWS V14.00,2013-02-11 21:26:00,
2013-02-11 15:31:00,50.2,29.1,30.00,NW,310,5.0,6.0,44,0.00,,FEW045,0.00,VWS V14.00,2013-02-11 21:31:00,
2013-02-11 15:36:00,50.1,29.6,30.00,NW,306,5.0,9.0,45,0.00,,SCT200,0.00,VWS V14.00,2013-02-11 21:36:00,
2013-02-11 15:41:00,50.2,29.7,30.00,West,280,7.0,9.0,45,0.00,,SCT200,0.00,VWS V14.00,2013-02-11 21:41:00,
2013-02-11 15:46:00,50.1,29.0,30.00,West,274,4.0,14.0,44,0.00,,SCT200,0.00,VWS V14.00,2013-02-11 21:46:00,
2013-02-11 15:51:00,49.9,28.9,30.00,West,280,5.0,14.0,44,0.00,,SCT200,0.00,VWS V14.00,2013-02-11 21:51:00,
2013-02-11 15:56:00,49.8,28.8,30.00,WNW,283,2.0,14.0,44,0.00,,SCT200,0.00,VWS V14.00,2013-02-11 21:56:00,
2013-02-11 16:01:00,49.9,28.9,30.00,West,268,4.0,13.0,44,0.00,,SCT200,0.00,VWS V14.00,2013-02-11 22:01:00,
2013-02-11 16:06:00,49.9,29.4,30.00,NW,324,5.0,13.0,45,0.00,,SCT200,0.00,VWS V14.00,2013-02-11 22:06:00,
2013-02-11 16:11:00,50.0,29.5,30.00,WNW,290,2.0,13.0,45,0.00,,SCT200,0.00,VWS V14.00,2013-02-11 22:11:00,
2013-02-11 16:16:00,50.0,29.5,30.00,WNW,299,2.0,13.0,45,0.00,,SCT200,0.00,VWS V14.00,2013-02-11 22:16:00,
2013-02-11 16:21:00,50.0,29.5,30.00,West,266,3.0,13.0,45,0.00,,SCT200,0.00,VWS V14.00,2013-02-11 22:21:00,
2013-02-11 16:26:00,49.9,28.9,30.00,West,278,5.0,13.0,44,0.00,,SCT200,0.00,VWS V14.00,2013-02-11 22:26:00,
2013-02-11 16:31:00,49.9,28.9,30.00,NW,305,5.0,6.0,44,0.00,,SCT200,0.00,VWS V14.00,2013-02-11 22:31:00,
2013-02-11 16:36:00,49.8,28.8,30.00,West,278,4.0,9.0,44,0.00,,CLR,0.00,VWS V14.00,2013-02-11 22:36:00,
2013-02-11 16:41:00,49.8,28.8,30.00,WNW,283,3.0,10.0,44,0.00,,CLR,0.00,VWS V14.00,2013-02-11 22:41:00,
2013-02-11 16:46:00,49.7,28.7,30.00,WNW,288,4.0,12.0,44,0.00,,CLR,0.00,VWS V14.00,2013-02-11 22:46:00,
2013-02-11 16:51:00,49.5,28.5,30.00,NW,316,3.0,12.0,44,0.00,,CLR,0.00,VWS V14.00,2013-02-11 22:51:00,
2013-02-11 16:56:00,49.4,28.4,29.99,NW,310,4.0,12.0,44,0.00,,CLR,0.00,VWS V14.00,2013-02-11 22:56:00,
2013-02-11 17:01:00,49.4,28.4,30.00,NW,305,3.0,6.0,44,0.00,,CLR,0.00,VWS V14.00,2013-02-11 23:01:00,
2013-02-11 17:06:00,49.3,28.3,29.99,WNW,283,6.0,12.0,44,0.00,,CLR,0.00,VWS V14.00,2013-02-11 23:06:00,
2013-02-11 17:11:00,49.1,28.1,30.00,WNW,299,4.0,12.0,44,0.00,,CLR,0.00,VWS V14.00,2013-02-11 23:11:00,
2013-02-11 17:16:00,49.0,28.0,30.00,West,265,3.0,12.0,44,0.00,,CLR,0.00,VWS V14.00,2013-02-11 23:16:00,
2013-02-11 17:21:00,48.9,28.0,30.00,NNW,341,2.0,12.0,44,0.00,,CLR,0.00,VWS V14.00,2013-02-11 23:21:00,
2013-02-11 17:26:00,48.8,27.9,30.00,WNW,289,3.0,12.0,44,0.00,,CLR,0.00,VWS V14.00,2013-02-11 23:26:00,
2013-02-11 17:31:00,48.6,27.7,30.01,WNW,284,0.0,3.0,44,0.00,,CLR,0.00,VWS V14.00,2013-02-11 23:31:00,
2013-02-11 17:36:00,48.5,27.6,30.01,West,262,3.0,5.0,44,0.00,,CLR,0.00,VWS V14.00,2013-02-11 23:36:00,
2013-02-11 17:41:00,48.4,27.5,30.01,WNW,287,0.0,8.0,44,0.00,,CLR,0.00,VWS V14.00,2013-02-11 23:41:00,
2013-02-11 17:46:00,48.3,27.4,30.01,WNW,302,3.0,8.0,44,0.00,,CLR,0.00,VWS V14.00,2013-02-11 23:46:00,
2013-02-11 17:51:00,48.1,27.8,30.01,West,267,0.0,8.0,45,0.00,,CLR,0.00,VWS V14.00,2013-02-11 23:51:00,
2013-02-11 17:56:00,47.9,27.6,30.01,West,267,0.0,8.0,45,0.00,,CLR,0.00,VWS V14.00,2013-02-11 23:56:00,
2013-02-11 18:01:00,47.7,28.0,30.02,West,281,2.0,5.0,46,0.00,,CLR,0.00,VWS V14.00,2013-02-12 00:01:00,
2013-02-11 18:06:00,47.6,27.9,30.02,WNW,293,3.0,5.0,46,0.00,,CLR,0.00,VWS V14.00,2013-02-12 00:06:00,
2013-02-11 18:11:00,47.4,27.7,30.02,WNW,287,0.0,5.0,46,0.00,,CLR,0.00,VWS V14.00,2013-02-12 00:11:00,
2013-02-11 18:16:00,47.2,27.5,30.02,WNW,287,0.0,5.0,46,0.00,,CLR,0.00,VWS V14.00,2013-02-12 00:16:00,
2013-02-11 18:21:00,47.0,27.8,30.02,WNW,288,0.0,5.0,47,0.00,,CLR,0.00,VWS V14.00,2013-02-12 00:21:00,
2013-02-11 18:26:00,46.8,27.6,30.02,WNW,288,0.0,5.0,47,0.00,,CLR,0.00,VWS V14.00,2013-02-12 00:26:00,
2013-02-11 18:31:00,46.7,27.6,30.02,WNW,288,0.0,1.0,47,0.00,,CLR,0.00,VWS V14.00,2013-02-12 00:31:00,
2013-02-11 18:36:00,46.5,27.4,30.03,WNW,288,0.0,1.0,47,0.00,,CLR,0.00,VWS V14.00,2013-02-12 00:36:00,
2013-02-11 18:41:00,46.3,27.7,30.03,WNW,288,0.0,1.0,48,0.00,,CLR,0.00,VWS V14.00,2013-02-12 00:41:00,
2013-02-11 18:46:00,46.0,27.4,30.03,WNW,288,0.0,1.0,48,0.00,,CLR,0.00,VWS V14.00,2013-02-12 00:46:00,
2013-02-11 18:51:00,45.7,27.6,30.03,WNW,288,0.0,1.0,49,0.00,,CLR,0.00,VWS V14.00,2013-02-12 00:51:00,
2013-02-11 18:56:00,45.3,27.3,30.03,WNW,288,0.0,1.0,49,0.00,,CLR,0.00,VWS V14.00,2013-02-12 00:56:00,
2013-02-11 19:01:00,44.9,27.4,30.03,WNW,288,0.0,0.0,50,0.00,,CLR,0.00,VWS V14.00,2013-02-12 01:01:00,
2013-02-11 19:30:00,44.0,28.0,30.04,WNW,288,0.0,0.0,53,0.00,,CLR,0.00,VWS V14.00,2013-02-12 01:30:00,
2013-02-11 19:59:00,44.0,28.0,30.04,WNW,288,0.0,0.0,53,0.00,,CLR,0.00,VWS V14.00,2013-02-12 01:59:00,
2013-02-11 20:04:00,42.1,27.1,30.05,WNW,288,0.0,0.0,55,0.00,,CLR,0.00,VWS V14.00,2013-02-12 02:04:00,
2013-02-11 20:09:00,41.7,27.2,30.05,WNW,288,0.0,0.0,56,0.00,,CLR,0.00,VWS V14.00,2013-02-12 02:09:00,
2013-02-11 20:14:00,41.3,26.8,30.05,WNW,288,0.0,0.0,56,0.00,,CLR,0.00,VWS V14.00,2013-02-12 02:14:00,
2013-02-11 20:19:00,41.0,27.0,30.05,WNW,288,0.0,0.0,57,0.00,,CLR,0.00,VWS V14.00,2013-02-12 02:19:00,
2013-02-11 20:24:00,40.6,27.0,30.05,WNW,288,0.0,0.0,58,0.00,,CLR,0.00,VWS V14.00,2013-02-12 02:24:00,
2013-02-11 20:29:00,40.2,27.4,30.05,WNW,288,0.0,0.0,60,0.00,,CLR,0.00,VWS V14.00,2013-02-12 02:29:00,
2013-02-11 20:34:00,39.8,27.1,30.06,WNW,288,0.0,0.0,60,0.00,,CLR,0.00,VWS V14.00,2013-02-12 02:34:00,
2013-02-11 20:39:00,39.3,26.6,30.06,WNW,288,0.0,0.0,60,0.00,,CLR,0.00,VWS V14.00,2013-02-12 02:39:00,
2013-02-11 20:44:00,38.9,26.6,30.06,WNW,288,0.0,0.0,61,0.00,,CLR,0.00,VWS V14.00,2013-02-12 02:44:00,
2013-02-11 20:49:00,38.6,26.7,30.06,WNW,288,0.0,0.0,62,0.00,,CLR,0.00,VWS V14.00,2013-02-12 02:49:00,
2013-02-11 20:54:00,38.2,26.7,30.06,WNW,288,0.0,0.0,63,0.00,,CLR,0.00,VWS V14.00,2013-02-12 02:54:00,
2013-02-11 20:59:00,37.9,26.8,30.06,WNW,288,0.0,0.0,64,0.00,,CLR,0.00,VWS V14.00,2013-02-12 02:59:00,
2013-02-11 21:04:00,37.6,26.9,30.06,WNW,288,0.0,0.0,65,0.00,,CLR,0.00,VWS V14.00,2013-02-12 03:04:00,
2013-02-11 21:09:00,37.4,27.1,30.06,WNW,288,0.0,0.0,66,0.00,,CLR,0.00,VWS V14.00,2013-02-12 03:09:00,
2013-02-11 21:14:00,37.3,27.4,30.07,WNW,288,0.0,0.0,67,0.00,,CLR,0.00,VWS V14.00,2013-02-12 03:14:00,
2013-02-11 21:19:00,37.2,27.6,30.07,WNW,288,0.0,0.0,68,0.00,,CLR,0.00,VWS V14.00,2013-02-12 03:19:00,
2013-02-11 21:24:00,37.1,27.5,30.07,WNW,288,0.0,0.0,68,0.00,,CLR,0.00,VWS V14.00,2013-02-12 03:24:00,
2013-02-11 21:29:00,37.1,27.9,30.07,WNW,288,0.0,0.0,69,0.00,,CLR,0.00,VWS V14.00,2013-02-12 03:29:00,
2013-02-11 21:34:00,37.1,27.5,30.07,WNW,288,0.0,0.0,68,0.00,,CLR,0.00,VWS V14.00,2013-02-12 03:34:00,
2013-02-11 21:39:00,37.0,27.8,30.07,WNW,288,0.0,0.0,69,0.00,,CLR,0.00,VWS V14.00,2013-02-12 03:39:00,
2013-02-11 21:44:00,36.9,27.3,30.07,WNW,288,0.0,0.0,68,0.00,,CLR,0.00,VWS V14.00,2013-02-12 03:44:00,
2013-02-11 21:49:00,36.8,27.2,30.07,WNW,288,0.0,0.0,68,0.00,,CLR,0.00,VWS V14.00,2013-02-12 03:49:00,
2013-02-11 21:54:00,36.8,27.2,30.07,WNW,288,0.0,0.0,68,0.00,,CLR,0.00,VWS V14.00,2013-02-12 03:54:00,
2013-02-11 21:59:00,36.6,27.4,30.07,WNW,288,0.0,0.0,69,0.00,,CLR,0.00,VWS V14.00,2013-02-12 03:59:00,
2013-02-11 22:04:00,36.4,27.2,30.08,WNW,288,0.0,0.0,69,0.00,,CLR,0.00,VWS V14.00,2013-02-12 04:04:00,
2013-02-11 22:09:00,36.3,27.1,30.08,WNW,288,0.0,0.0,69,0.00,,CLR,0.00,VWS V14.00,2013-02-12 04:09:00,
2013-02-11 22:14:00,36.1,27.3,30.08,WNW,288,0.0,0.0,70,0.00,,CLR,0.00,VWS V14.00,2013-02-12 04:14:00,
2013-02-11 22:19:00,35.8,27.0,30.08,WNW,288,0.0,0.0,70,0.00,,CLR,0.00,VWS V14.00,2013-02-12 04:19:00,
2013-02-11 22:24:00,35.6,27.1,30.08,WNW,288,0.0,0.0,71,0.00,,CLR,0.00,VWS V14.00,2013-02-12 04:24:00,
2013-02-11 22:29:00,35.5,27.4,30.08,WNW,288,0.0,0.0,72,0.00,,CLR,0.00,VWS V14.00,2013-02-12 04:29:00,
2013-02-11 22:34:00,35.4,27.3,30.08,WNW,288,0.0,0.0,72,0.00,,CLR,0.00,VWS V14.00,2013-02-12 04:34:00,
2013-02-11 22:39:00,35.4,27.3,30.08,WNW,288,0.0,0.0,72,0.00,,CLR,0.00,VWS V14.00,2013-02-12 04:39:00,
2013-02-11 22:44:00,35.3,27.5,30.08,WNW,288,0.0,0.0,73,0.00,,CLR,0.00,VWS V14.00,2013-02-12 04:44:00,
2013-02-11 22:49:00,35.2,27.1,30.08,WNW,288,0.0,0.0,72,0.00,,CLR,0.00,VWS V14.00,2013-02-12 04:49:00,
2013-02-11 22:54:00,35.1,27.0,30.08,WNW,288,0.0,0.0,72,0.00,,CLR,0.00,VWS V14.00,2013-02-12 04:54:00,
2013-02-11 22:59:00,34.9,27.1,30.08,WNW,288,0.0,0.0,73,0.00,,CLR,0.00,VWS V14.00,2013-02-12 04:59:00,
2013-02-11 23:00:00,34.9,27.1,30.08,WNW,288,0.0,0.0,73,0.00,,CLR,0.00,VWS V14.00,2013-02-12 05:00:00,
2013-02-11 23:05:00,34.7,26.3,30.08,WNW,288,0.0,0.0,71,0.00,,CLR,0.00,VWS V14.00,2013-02-12 05:05:00,
2013-02-11 23:10:00,34.5,26.4,30.08,WNW,288,0.0,0.0,72,0.00,,CLR,0.00,VWS V14.00,2013-02-12 05:10:00,
2013-02-11 23:15:00,34.4,26.3,30.08,WNW,288,0.0,0.0,72,0.00,,CLR,0.00,VWS V14.00,2013-02-12 05:15:00,
2013-02-11 23:20:00,34.2,26.1,30.09,WNW,288,0.0,0.0,72,0.00,,CLR,0.00,VWS V14.00,2013-02-12 05:20:00,
2013-02-11 23:25:00,34.1,26.4,30.08,WNW,288,0.0,0.0,73,0.00,,CLR,0.00,VWS V14.00,2013-02-12 05:25:00,
2013-02-11 23:30:00,33.9,26.2,30.09,WNW,288,0.0,0.0,73,0.00,,CLR,0.00,VWS V14.00,2013-02-12 05:30:00,
2013-02-11 23:35:00,33.6,25.9,30.09,WNW,288,0.0,0.0,73,0.00,,CLR,0.00,VWS V14.00,2013-02-12 05:35:00,
2013-02-11 23:40:00,33.5,25.8,30.09,WNW,288,0.0,0.0,73,0.00,,CLR,0.00,VWS V14.00,2013-02-12 05:40:00,
2013-02-11 23:45:00,33.6,26.2,30.09,WNW,288,0.0,0.0,74,0.00,,CLR,0.00,VWS V14.00,2013-02-12 05:45:00,
2013-02-11 23:50:00,33.6,26.2,30.09,WNW,288,0.0,0.0,74,0.00,,CLR,0.00,VWS V14.00,2013-02-12 05:50:00,
2013-02-11 23:55:00,33.7,26.3,30.09,WNW,288,0.0,0.0,74,0.00,,CLR,0.00,VWS V14.00,2013-02-12 05:55:00,